Williamtown Observation History
Time Wind Speed Temp Pressure Rel. Hum Rain
03/01:30pm N 6-8 kts 24.9°c 1008.2 hPa 68% 0.4mm
03/01:00pm NNW 6-8 kts 24.8°c 1009.1 hPa 67% 0.4mm
03/12:30pm NW 8-11 kts 25.3°c 1009.5 hPa 62% 0.4mm
03/12:00pm W 9-13 kts 25.3°c 1009.9 hPa 62% 0.4mm
03/11:30am NW 9-14 kts 24.5°c 1010.0 hPa 71% 0.4mm
03/11:00am NW 9-13 kts 25.0°c 1009.8 hPa 71% 0.4mm
03/10:30am NNW 8-11 kts 23.6°c 1010.0 hPa 78% 0.4mm
03/10:00am NNW 6-8 kts 22.5°c 1010.3 hPa 82% 0.4mm
03/09:30am NW 9-13 kts 22.1°c 1010.6 hPa 83% 0.0mm
03/09:00am NW 6-8 kts 21.1°c 1010.5 hPa 89% 9.2mm
03/08:30am NW 6-8 kts 20.0°c 1010.5 hPa 96% 9.2mm
03/08:00am NW 5 kts 18.8°c 1010.4 hPa 99% 9.2mm
03/07:30am NNW 7-8 kts 18.1°c 1010.3 hPa 99% 9.2mm
03/07:00am NW 4-5 kts 17.2°c 1010.3 hPa 99% 9.2mm
03/06:30am CALM 0 kts 17.4°c 1010.1 hPa 99% 9.2mm
03/06:05am NE 1-4 kts 17.7°c 1009.8 hPa 98% 9.2mm
03/06:04am NE 1-4 kts 17.7°c 1009.8 hPa 98% 9.2mm
03/06:00am CALM 0 kts 17.6°c 1009.8 hPa 98% 9.2mm
03/05:40am NNE 3-5 kts 17.7°c 1009.9 hPa 98% 9.2mm
03/05:30am CALM 0 kts 18.0°c 1009.8 hPa 98% 9.2mm
03/05:21am NW 1-5 kts 18.0°c 1009.8 hPa 98% 9.2mm
03/05:00am CALM 0-3 kts 17.8°c 1009.7 hPa 98% 9.2mm
03/04:40am WSW 3-4 kts 18.3°c 1009.9 hPa 98% 9.2mm
03/04:33am W 4-5 kts 18.4°c 1009.9 hPa 98% 9.2mm
03/04:30am W 4-5 kts 18.5°c 1009.8 hPa 98% 9.2mm
03/04:00am CALM 0 kts 18.8°c 1010.1 hPa 98% 9.2mm
03/03:30am NE 1-4 kts 19.0°c 1010.2 hPa 98% 9.2mm
03/03:10am NE 4-5 kts 18.9°c 1010.3 hPa 99% 9.2mm
03/03:00am N 5-7 kts 18.8°c 1010.3 hPa 98% 9.2mm
03/02:30am NW 7-8 kts 18.8°c 1010.4 hPa 99% 9.2mm
03/02:29am NW 7-8 kts 18.8°c 1010.4 hPa 98% 9.2mm
03/02:01am WNW 7-8 kts 18.8°c 1010.7 hPa 98% 9.2mm
03/02:00am WNW 7-8 kts 18.8°c 1010.6 hPa 98% 9.2mm
03/01:45am NW 7-8 kts 19.1°c 1010.6 hPa 98% 9.2mm
03/01:30am NW 5-6 kts 19.1°c 1010.6 hPa 98% 9.2mm
03/01:28am NW 5 kts 19.1°c 1010.7 hPa 98% 9.2mm
03/01:14am WNW 5-7 kts 19.3°c 1010.7 hPa 98% 9.2mm
03/01:07am WNW 5-7 kts 19.4°c 1010.7 hPa 99% 9.2mm
03/01:00am WNW 5-6 kts 19.4°c 1010.8 hPa 99% 9.2mm
03/12:30am W 4-5 kts 19.7°c 1010.9 hPa 99% 9.2mm
03/12:02am WSW 6-8 kts 19.5°c 1011.2 hPa 98% 9.2mm
03/12:00am WSW 6-8 kts 19.5°c 1011.2 hPa 98% 9.2mm
Time Wind Speed Temp Pressure Rel. Hum Rain
02/11:48pm WNW 4-5 kts 19.5°c 1011.3 hPa 97% 9.2mm
02/11:30pm NW 4 kts 19.6°c 1011.4 hPa 97% 9.2mm
02/11:00pm NNW 5-7 kts 20.0°c 1011.6 hPa 97% 9.2mm
02/10:30pm NE 5-8 kts 20.2°c 1011.8 hPa 97% 9.2mm
02/10:22pm NE 5-7 kts 20.1°c 1011.8 hPa 97% 9.0mm
02/10:00pm NW 3-5 kts 20.2°c 1012.2 hPa 97% 7.8mm
02/09:30pm W 6-8 kts 20.3°c 1012.6 hPa 96% 3.4mm
02/09:18pm W 7-9 kts 20.2°c 1012.4 hPa 96% 2.8mm
02/09:00pm W 5 kts 20.4°c 1012.4 hPa 95% 1.6mm
02/08:30pm WNW 2-4 kts 20.6°c 1012.2 hPa 94% 1.2mm
02/08:00pm NNW 1-4 kts 21.1°c 1012.3 hPa 91% 0.0mm
02/07:30pm ENE 6-7 kts 21.4°c 1011.8 hPa 86% 0.0mm
02/07:00pm E 5-7 kts 21.3°c 1011.7 hPa 87% 0.0mm
02/06:30pm NE 2-5 kts 21.9°c 1011.7 hPa 81% 0.0mm
02/06:00pm WNW 5-6 kts 22.0°c 1011.9 hPa 82% 0.0mm
02/05:30pm W 7-10 kts 22.7°c 1011.8 hPa 78% 0.0mm
02/05:00pm W 9-11 kts 23.9°c 1011.8 hPa 68% 0.0mm
02/04:30pm W 7-11 kts 25.0°c 1011.5 hPa 61% 0.0mm
02/04:00pm WSW 7-9 kts 26.1°c 1011.4 hPa 59% 0.0mm
02/03:30pm WSW 4-6 kts 26.8°c 1011.4 hPa 57% 0.0mm
02/03:00pm N 4-6 kts 26.8°c 1011.5 hPa 54% 0.0mm
02/02:30pm ENE 5-8 kts 26.8°c 1011.6 hPa 55% 0.0mm
02/02:00pm NE 6-10 kts 27.0°c 1011.6 hPa 53% 0.0mm
02/01:30pm NNE 8-10 kts 27.5°c 1012.1 hPa 49% 0.0mm
02/01:00pm NNE 7-10 kts 27.0°c 1012.4 hPa 51% 0.0mm
02/12:30pm NNE 8-12 kts 26.8°c 1012.9 hPa 52% 0.0mm
02/12:00pm NNE 8-12 kts 26.1°c 1013.4 hPa 52% 0.0mm
02/11:30am NNE 8-11 kts 25.7°c 1013.8 hPa 55% 0.0mm
02/11:00am N 7-10 kts 24.7°c 1014.3 hPa 64% 0.0mm
02/10:30am N 6-8 kts 23.4°c 1014.6 hPa 71% 0.0mm
02/10:00am NNE 6-9 kts 22.1°c 1014.6 hPa 72% 0.0mm
02/09:30am N 6-8 kts 21.5°c 1014.9 hPa 74% 0.0mm
02/09:00am NNW 4-6 kts 21.2°c 1015.2 hPa 80% 0.2mm
02/08:30am CALM 0-4 kts 18.9°c 1015.0 hPa 88% 0.2mm
02/08:00am NW 1-5 kts 17.0°c 1015.0 hPa 93% 0.2mm
02/07:30am CALM 0 kts 16.4°c 1014.8 hPa 90% 0.2mm
02/07:00am NE 1-3 kts 18.0°c 1014.9 hPa 85% 0.2mm
02/06:30am NNE 4-5 kts 19.0°c 1014.8 hPa 83% 0.2mm
02/06:00am NE 5-7 kts 19.6°c 1014.7 hPa 83% 0.2mm
02/05:30am NE 5-7 kts 19.8°c 1014.7 hPa 85% 0.2mm
02/05:00am NE 4-6 kts 18.9°c 1014.7 hPa 90% 0.2mm
02/04:30am ENE 6-8 kts 18.9°c 1014.8 hPa 91% 0.2mm
02/04:00am E 5-7 kts 19.1°c 1015.2 hPa 92% 0.2mm
02/03:30am E 4-6 kts 19.2°c 1015.5 hPa 91% 0.2mm
02/03:00am NE 5-6 kts 19.7°c 1015.7 hPa 91% 0.2mm
02/02:30am NE 6-8 kts 19.9°c 1016.1 hPa 90% 0.2mm
02/02:00am ENE 5-7 kts 20.3°c 1016.6 hPa 89% 0.2mm
02/01:30am ENE 5-8 kts 20.4°c 1016.7 hPa 88% 0.2mm
02/01:00am NE 6-9 kts 20.7°c 1017.0 hPa 88% 0.2mm
02/12:30am NE 6-9 kts 20.7°c 1017.2 hPa 88% 0.2mm
02/12:00am NE 5-6 kts 20.6°c 1017.6 hPa 89% 0.2mm
Time Wind Speed Temp Pressure Rel. Hum Rain
01/11:30pm ENE 6-8 kts 20.5°c 1017.6 hPa 89% 0.2mm
01/11:00pm ENE 5-7 kts 20.5°c 1018.0 hPa 88% 0.2mm
01/10:30pm ENE 5-7 kts 20.8°c 1018.0 hPa 87% 0.2mm
01/10:00pm ENE 4-7 kts 21.1°c 1018.1 hPa 86% 0.2mm
01/09:30pm NE 5-8 kts 21.4°c 1018.0 hPa 84% 0.2mm
01/09:00pm ENE 5-7 kts 21.6°c 1018.0 hPa 83% 0.2mm
01/08:30pm ENE 8-13 kts 22.0°c 1017.9 hPa 82% 0.2mm
01/08:00pm ENE 7-10 kts 22.0°c 1017.5 hPa 82% 0.2mm
01/07:30pm ENE 9-12 kts 22.3°c 1017.1 hPa 82% 0.2mm
01/07:00pm ENE 9-13 kts 22.7°c 1016.9 hPa 79% 0.2mm
01/06:30pm ENE 10-15 kts 23.2°c 1016.7 hPa 76% 0.2mm
01/06:00pm ENE 10-14 kts 24.1°c 1016.3 hPa 73% 0.2mm
01/05:30pm E 11-16 kts 24.7°c 1016.6 hPa 70% 0.0mm
01/05:00pm ESE 13-18 kts 24.9°c 1016.6 hPa 70% 0.0mm
01/04:30pm E 9-14 kts 25.7°c 1016.6 hPa 65% 0.0mm
01/04:00pm E 10-14 kts 25.9°c 1016.5 hPa 68% 0.0mm
01/03:30pm ESE 12-16 kts 26.0°c 1016.5 hPa 67% 0.0mm
01/03:00pm ESE 11-16 kts 26.0°c 1016.6 hPa 65% 0.0mm
01/02:30pm E 8-12 kts 26.9°c 1016.7 hPa 52% 0.0mm
01/02:00pm E 10-15 kts 26.5°c 1016.9 hPa 61% 0.0mm
01/01:30pm ENE 8-14 kts 26.5°c 1017.3 hPa 65% 0.0mm
01/01:00pm E 9-12 kts 25.7°c 1017.8 hPa 62% 0.0mm
01/12:30pm E 8-11 kts 25.7°c 1018.3 hPa 60% 0.0mm
01/12:00pm ENE 6-10 kts 25.5°c 1018.8 hPa 62% 0.0mm
01/11:30am NE 3-5 kts 24.9°c 1019.3 hPa 74% 0.0mm
01/11:00am E 5-8 kts 23.7°c 1019.7 hPa 78% 0.0mm
01/10:30am CALM 0 kts 22.0°c 1019.8 hPa 97% 0.0mm
01/10:00am NW 3-5 kts 20.8°c 1019.7 hPa 100% 0.0mm
01/09:56am NW 3-5 kts 20.7°c 1019.7 hPa 100% 0.0mm
01/09:30am NW 5-6 kts 19.6°c 1019.8 hPa 100% 0.0mm
01/09:00am NW 7-9 kts 19.1°c 1019.6 hPa 100% 0.0mm
01/08:30am NW 6-7 kts 18.6°c 1019.3 hPa 100% 0.0mm
01/08:00am WNW 2-4 kts 17.7°c 1018.8 hPa 99% 0.0mm
01/07:30am CALM 0-2 kts 17.0°c 1018.4 hPa 99% 0.0mm
01/07:00am CALM 0 kts 16.6°c 1018.4 hPa 99% 0.0mm
01/06:30am CALM 0 kts 16.7°c 1018.3 hPa 98% 0.0mm
01/06:00am CALM 0 kts 17.0°c 1018.1 hPa 98% 0.0mm
01/05:40am CALM 0 kts 17.0°c 1017.9 hPa 98% 0.0mm
01/05:32am CALM 0 kts 17.1°c 1017.8 hPa 98% 0.0mm
01/05:30am CALM 0 kts 17.1°c 1017.8 hPa 98% 0.0mm
01/05:12am NW 4-5 kts 17.2°c 1017.8 hPa 98% 0.0mm
01/05:00am NW 4-5 kts 17.1°c 1017.8 hPa 98% 0.0mm
01/04:30am CALM 0-2 kts 17.3°c 1017.5 hPa 98% 0.0mm
01/04:00am NW 4-5 kts 17.8°c 1017.5 hPa 98% 0.0mm
01/03:44am WNW 5 kts 18.1°c 1017.5 hPa 98% 0.0mm
01/03:36am WNW 5-6 kts 18.3°c 1017.6 hPa 98% 0.0mm
01/03:30am WNW 5-6 kts 18.4°c 1017.7 hPa 98% 0.0mm
01/03:00am NW 5-6 kts 18.6°c 1017.8 hPa 97% 0.0mm
01/02:30am NW 1-5 kts 17.8°c 1017.8 hPa 96% 0.0mm
01/02:00am CALM 0 kts 18.5°c 1017.8 hPa 97% 0.0mm
01/01:30am CALM 0 kts 18.9°c 1017.8 hPa 97% 0.0mm
01/01:00am WNW 1-4 kts 18.4°c 1017.9 hPa 95% 0.0mm
01/12:30am CALM 0-1 kts 18.7°c 1018.1 hPa 96% 0.0mm
01/12:00am NW 4 kts 18.7°c 1018.2 hPa 96% 0.0mm